Weather History for Bluefield, WV

Change the Weather History Date:

Thursday, July 25, 2013

  Actual Average Record
Temperature  
Mean Temperature 69 °F 73 °F  
Max Temperature 78 °F 81 °F 90 °F (1987)
Min Temperature 59 °F 65 °F 54 °F (2003)
Degree Days  
Heating Degree Days 0 0  
Month to date heating degree days 0 0  
Since 1 June heating degree days 0 22  
Since 1 July heating degree days 0 0  
Cooling Degree Days 4 8  
Month to date cooling degree days 256 200  
Year to date cooling degree days 561 457  
Since 1 June cooling degree days 447 366  
Growing Degree Days 19 (Base 50)    
Moisture  
Dew Point 56 °F    
Average Humidity 65    
Maximum Humidity 90    
Minimum Humidity 39    
Precipitation  
Precipitation 0.00 in 0.13 in 1.31 in (2002)
Month to date precipitation 2.96 3.42  
Year to date precipitation 26.32 24.38  
Snow  
Snow 0.00 in - - ()
Month to date snowfall 0.0  
Since 1 June snowfall 0.0  
Since 1 July snowfall 0.0  
Snow Depth 0.00 in    
Sea Level Pressure  
Sea Level Pressure 30.00 in    
Wind  
Wind Speed 3 mph (NW)    
Max Wind Speed 10 mph    
Max Gust Speed 14 mph    
Visibility 7 miles    
Events Fog    
T = Trace of Precipitation, MM = Missing Value Source: NWS Daily Summary

Daily Weather History Graph

Daily Weather History Graph

Search for Another Location

Airport:

Trip Planner

Search our weather history database for the weather conditions in past years. The results will help you decide how hot, cold, wet, or windy it might be!

Date:

Astronomy

Jul. 25, 2013 Rise Set
Actual Time 6:23 AM EDT 8:38 PM EDT
Civil Twilight 5:54 AM EDT 9:07 PM EDT
Nautical Twilight 5:18 AM EDT 9:43 PM EDT
Astronomical Twilight 4:38 AM EDT 10:22 PM EDT
Moon 10:24 PM EDT (7/25) 9:45 AM EDT (7/25)
Length of Visible Light 15h 13m
Length of Day
14h 14m
Waning Gibbous, 88% of the Moon is Illuminated
Jul 25
Waning Gibbous
Jul 29
Last Quarter
Aug 6
New
Aug 14
First Quarter
Aug 20
Full

Hourly Weather History & Observations

Time (EDT) Temp. Dew Point Humidity Pressure Visibility Wind Dir Wind Speed Gust Speed Precip Events Conditions
12:52 AM 64.9 °F 59.0 °F 81% 29.93 in 10.0 mi Calm Calm - N/A   Mostly Cloudy
1:52 AM 64.9 °F 59.0 °F 81% 29.91 in 10.0 mi Calm Calm - N/A   Overcast
2:52 AM 64.0 °F 59.0 °F 84% 29.91 in 10.0 mi Calm Calm - N/A   Mostly Cloudy
3:52 AM 63.0 °F 57.9 °F 84% 29.91 in 10.0 mi Calm Calm - N/A   Mostly Cloudy
4:52 AM 63.0 °F 59.0 °F 87% 29.91 in 7.0 mi Calm Calm - N/A   Mostly Cloudy
5:49 AM 62.6 °F 57.2 °F 82% 30.02 in 2.5 mi Calm Calm - N/A   Haze
5:52 AM 63.0 °F 57.9 °F 84% 29.92 in 3.0 mi Calm Calm - N/A   Haze
6:13 AM 62.6 °F 57.2 °F 82% 30.03 in 1.2 mi Calm Calm - N/A   Haze
6:15 AM 60.8 °F 57.2 °F 88% 30.03 in 0.8 mi Calm Calm - N/A   Scattered Clouds
6:31 AM 60.8 °F 57.2 °F 88% 30.03 in 0.2 mi Calm Calm - N/A Fog Fog
6:52 AM 61.0 °F 57.0 °F 87% 29.94 in 0.2 mi Calm Calm - N/A Fog Fog
7:52 AM 62.1 °F 57.9 °F 86% 29.96 in 0.2 mi Calm Calm - N/A Fog Fog
8:52 AM 63.0 °F 59.0 °F 87% 29.97 in 0.2 mi NW 3.5 mph - N/A Fog Fog
9:02 AM 62.6 °F 59.0 °F 88% 30.07 in 1.2 mi West 4.6 mph - N/A   Overcast
9:20 AM 62.6 °F 59.0 °F 88% 30.08 in 3.0 mi Variable 3.5 mph - N/A   Overcast
9:40 AM 64.4 °F 59.0 °F 83% 30.08 in 9.0 mi Variable 4.6 mph - N/A   Overcast
9:52 AM 66.0 °F 59.0 °F 78% 29.98 in 10.0 mi West 5.8 mph - N/A   Overcast
9:59 AM 66.2 °F 57.2 °F 73% 30.07 in 10.0 mi Calm Calm - N/A   Overcast
10:16 AM 68.0 °F 55.4 °F 64% 30.07 in 10.0 mi Variable 3.5 mph - N/A   Scattered Clouds
10:52 AM 70.0 °F 54.0 °F 57% 29.98 in 10.0 mi Calm Calm - N/A   Partly Cloudy
11:52 AM 73.9 °F 55.9 °F 53% 29.98 in 10.0 mi North 4.6 mph - N/A   Mostly Cloudy
12:52 PM 72.0 °F 55.0 °F 55% 29.99 in 10.0 mi Variable 4.6 mph - N/A   Mostly Cloudy
1:52 PM 75.0 °F 55.0 °F 50% 29.99 in 10.0 mi WNW 11.5 mph - N/A   Partly Cloudy
2:52 PM 73.9 °F 54.0 °F 50% 29.99 in 10.0 mi NNW 8.1 mph - N/A   Mostly Cloudy
3:52 PM 75.0 °F 53.1 °F 46% 29.99 in 10.0 mi North 5.8 mph - N/A   Partly Cloudy
4:52 PM 78.1 °F 52.0 °F 40% 29.98 in 10.0 mi Calm Calm - N/A   Clear
5:52 PM 75.9 °F 53.1 °F 45% 30.00 in 10.0 mi West 5.8 mph - N/A   Clear
6:52 PM 75.0 °F 54.0 °F 48% 30.02 in 10.0 mi WNW 5.8 mph - N/A   Clear
7:52 PM 72.0 °F 55.0 °F 55% 30.04 in 10.0 mi Variable 4.6 mph - N/A   Clear
8:52 PM 66.9 °F 55.0 °F 66% 30.05 in 10.0 mi Calm Calm - N/A   Clear
9:52 PM 64.0 °F 55.0 °F 73% 30.07 in 10.0 mi Calm Calm - N/A   Clear
10:52 PM 64.9 °F 54.0 °F 68% 30.08 in 10.0 mi Calm Calm - N/A   Scattered Clouds
11:52 PM 64.0 °F 53.1 °F 67% 30.08 in 10.0 mi West 3.5 mph - N/A   Clear